Location: Poughquag
(41.6090°N, 73.6820°W)
Time: 14:44:54
(UTC-04:00)

Courier 1B - Pass Details

Date: 31 May 2020
Orbit: 962 x 1209 km, 28.3° (Epoch: 05 July)

Event Time Altitude Azimuth Distance (km) Brightness Sun altitude
Exits shadow 03:35:25 23° 220° (SW) 2,331 8.8 -16.1°
Maximum altitude 03:38:10 28° 190° (S) 2,103 8.8 -15.7°
Drops below altitude 10° 03:44:32 10° 135° (SE) 3,129 10.1 -15.0°
Sets 03:47:49 0° 124° (SE) 4,076 10.8 -14.6°
